TimeEDT,TemperatureF,Dew PointF,Humidity,Sea Level PressureIn,VisibilityMPH,Wind Direction,Wind SpeedMPH,Gust SpeedMPH,PrecipitationIn,Events,Conditions,WindDirDegrees,DateUTC
12:54 AM,64.0,57.9,80,29.93,10.0,SW,3.5,-,N/A,,Clear,220,2012-10-06 04:54:00
1:54 AM,63.0,57.9,84,29.92,10.0,SW,3.5,-,N/A,,Partly Cloudy,220,2012-10-06 05:54:00
2:54 AM,62.1,57.9,86,29.90,10.0,SW,5.8,-,N/A,,Partly Cloudy,230,2012-10-06 06:54:00
3:54 AM,62.1,57.9,86,29.88,10.0,SW,4.6,-,N/A,,Partly Cloudy,220,2012-10-06 07:54:00
4:54 AM,62.1,57.0,84,29.88,10.0,SW,5.8,-,N/A,,Partly Cloudy,220,2012-10-06 08:54:00
5:54 AM,61.0,57.9,90,29.88,10.0,SSW,4.6,-,N/A,,Scattered Clouds,200,2012-10-06 09:54:00
6:54 AM,61.0,57.9,90,29.87,9.0,South,4.6,-,N/A,,Scattered Clouds,190,2012-10-06 10:54:00
7:54 AM,62.1,57.9,86,29.86,9.0,SSW,5.8,-,N/A,,Scattered Clouds,210,2012-10-06 11:54:00
8:54 AM,66.0,59.0,78,29.85,10.0,SW,5.8,-,N/A,,Scattered Clouds,220,2012-10-06 12:54:00
9:54 AM,70.0,60.1,71,29.84,10.0,SW,10.4,-,N/A,,Mostly Cloudy,220,2012-10-06 13:54:00
10:54 AM,73.0,59.0,61,29.84,10.0,WSW,9.2,-,N/A,,Mostly Cloudy,240,2012-10-06 14:54:00
11:54 AM,75.0,60.1,60,29.83,10.0,SW,9.2,-,N/A,,Mostly Cloudy,220,2012-10-06 15:54:00
12:54 PM,78.1,57.9,50,29.83,10.0,WSW,10.4,-,N/A,,Mostly Cloudy,250,2012-10-06 16:54:00
1:54 PM,72.0,57.0,59,29.85,10.0,WNW,16.1,26.5,N/A,,Mostly Cloudy,300,2012-10-06 17:54:00
2:54 PM,69.1,54.0,58,29.87,10.0,WNW,19.6,27.6,N/A,,Mostly Cloudy,300,2012-10-06 18:54:00
3:54 PM,70.0,51.1,51,29.90,10.0,NW,13.8,19.6,N/A,,Scattered Clouds,310,2012-10-06 19:54:00
4:54 PM,68.0,46.9,47,29.91,10.0,NW,12.7,24.2,N/A,,Scattered Clouds,310,2012-10-06 20:54:00
5:54 PM,64.0,46.0,52,29.94,10.0,NW,13.8,21.9,N/A,,Scattered Clouds,320,2012-10-06 21:54:00
6:54 PM,60.8,42.8,52,29.96,10.0,NW,6.9,-,N/A,,Scattered Clouds,320,2012-10-06 22:54:00
7:54 PM,57.9,44.1,60,29.99,10.0,NW,5.8,-,N/A,,Partly Cloudy,310,2012-10-06 23:54:00
8:54 PM,55.9,45.0,67,30.02,10.0,WNW,5.8,-,N/A,,Partly Cloudy,290,2012-10-07 00:54:00
9:54 PM,53.1,45.0,74,30.03,10.0,Calm,Calm,-,N/A,,Clear,0,2012-10-07 01:54:00
10:54 PM,50.0,45.0,83,30.04,10.0,SW,3.5,-,N/A,,Partly Cloudy,220,2012-10-07 02:54:00
11:54 PM,50.0,45.0,83,30.04,10.0,Calm,Calm,-,N/A,,Partly Cloudy,0,2012-10-07 03:54:00